Location: Borovka
(49.7741°N, 14.5280°E)
Time: 06:59:30
(UTC+00:00)

Cosmos 1536 Rocket - Pass Details

Date: 17 November 2025
Orbit: 598 x 625 km, 82.5° (Epoch: 16 December)

Event Time Altitude Azimuth Distance (km) Brightness Sun altitude
Rises 16:50:32 0° 353° (N) 2,921 7.0 -15.1°
Reaches altitude 10° 16:52:51 10° 359° (N) 2,007 6.1 -15.4°
Maximum altitude 16:57:11 51° 76° (ENE) 784 3.7 -16.1°
Drops below altitude 10° 17:01:28 10° 153° (SSE) 1,978 6.0 -16.8°
Sets 17:03:43 0° 158° (SSE) 2,874 6.9 -17.2°
